Simultaneous Nadir Overpasses (SNOs) Predictions

Prediction of SNOs between GOES-16 and METOP-B Satellite Orbit:

Table of predicted SNOs for the next 14.0 days since TLE Epoch: 6/7/2019
Index Date Time (GOES-16) GOES-16 Lat,Lon METOP-B Lat,Lon Distance(km) Time Diff (sec)
1 06/08/2019 02:15:32 -0.00, -75.19 0.71, -71.94 370.17 80
2 06/09/2019 14:34:25 0.00, -75.21 0.29, -76.51 148.42 80
3 06/10/2019 14:16:25 0.00, -75.21 -0.81, -71.51 421.25 80
4 06/12/2019 02:35:26 -0.01, -75.22 -0.22, -76.11 101.87 80
5 06/13/2019 02:12:07 -0.01, -75.22 0.94, -71.12 468.21 80
6 06/14/2019 14:33:38 0.01, -75.25 0.12, -75.67 49.27 80
7 06/17/2019 02:29:20 -0.01, -75.27 0.01, -75.28 2.25 80
8 06/19/2019 14:27:33 -0.00, -75.32 -0.11, -74.85 52.85 80
9 06/21/2019 02:49:13 0.00, -75.34 -0.91, -79.45 468.21 80




NCC Satellite Simultaneous Nadir Overpasses (SNOs) Prediction Service
